Location: Rounton
(54.4000°N, 1.3500°W)
Time: 05:03:44
(UTC+00:00)

A-11 Canister half - Pass Details

Date: 04 December 2021
Orbit: 1524 x 1684 km, 47.3° (Epoch: 17 January)

Event Time Altitude Azimuth Distance (km) Brightness Sun altitude
Exits shadow 03:22:02 53° 148° (SSE) 1,988 9.4 -40.0°
Drops below altitude 10° 03:30:36 10° 93° (E) 3,874 11.7 -38.8°
Sets 03:33:45 0° 89° (E) 4,840 12.5 -38.3°
